Regional Weather Roundup
Issued by NWS Grand Forks, ND

Home | Current Version | Previous Version | Text Only | Print | Product List | Glossary On
Versions: 1 2 3 4 5 6 7 8 9 10 11 12 13 14 15 16 17 18 19 20 21 22 23 24 25 26 27 28 29 30 31 32 33 34 35 36 37 38 39 40 41 42 43 44 45 46 47 48 49 50
739
ASUS43 KFGF 011810
RWRFGF
PRAIRIE TO PINES  WEATHER ROUNDUP
NATIONAL WEATHER SERVICE EASTERN NORTH DAKOTA/GRAND FORKS ND
1200 PM CST WED MAR 01 2017

 **SATELLITE DATA USED TO AUGMENT SKY COVER AT AUTOMATED STATIONS**
 *****  WEATHER ACROSS EASTERN NORTH DAKOTA  *****

CITY           SKY/WX    TMP DP  RH WIND       PRES   REMARKS
GRAND FORKS    PTSUNNY   20   9  62 N15       30.07R WCI   6
6HR MIN TEMP:  12; 6HR MAX TEMP:  20; 6HR PCP:  0.01;

GRAND FRKS AFB PTSUNNY   19  12  73 N14       30.07S WCI   6
DEVILS LAKE    FAIR      13   8  81 W12       30.08R WCI  -1
6HR MIN TEMP:   3; 6HR MAX TEMP:  13; 6HR PCP: TRACE;

FARGO          CLOUDY    22  16  78 NW15      30.05R WCI   9
WAHPETON ARPT  CLOUDY    25  18  74 NW17      30.05R WCI  11
$$

 ***** WEATHER ACROSS CENTRAL AND WESTERN NORTH DAKOTA  *****

CITY           SKY/WX    TMP DP  RH WIND       PRES   REMARKS
BISMARCK       FAIR      23  14  68 NW14      30.12R WCI  11
6HR MIN TEMP:  17; 6HR MAX TEMP:  24; 6HR PCP: TRACE;

MINOT          FAIR      18  11  74 NW10      30.09S WCI   6
6HR MIN TEMP:   8; 6HR MAX TEMP:  18; 6HR PCP: TRACE;

JAMESTOWN      FAIR      20  14  77 NW17      30.06R WCI   5
6HR MIN TEMP:  14; 6HR MAX TEMP:  20; 6HR PCP: TRACE;

MINOT AFB      FAIR      15  10  77 NW12      30.09S WCI   2
GARRISON         N/A     14   9  80 NW9       30.10S WCI   2
WILLISTON      FAIR      16   9  74 CALM      30.10S
6HR MIN TEMP:   4; 6HR MAX TEMP:  19;

DICKINSON      FAIR      23  13  65 W12       30.04S WCI  12
6HR MIN TEMP:  10; 6HR MAX TEMP:  24;

HETTINGER      CLOUDY    26  11  52 W10       30.08S WCI  16
6HR MIN TEMP:  19; 6HR MAX TEMP:  27;

$$

 *****  OTHER AIRPORT OBSERVATIONS IN OUR AREA  *****

CITY           SKY/WX    TMP DP  RH WIND       PRES   REMARKS
WALHALLA       NOT AVBL
GRAFTON AIRPOR FAIR      18  12  79 NW14      30.09S WCI   4
VALLEY CITY AR FAIR      23  14  68 N16       30.06S WCI  10
CANDO          NOT AVBL
CAVALIER APRT    N/A     18  10  73 N15       30.08R WCI   3
GWINNER        MOCLDY    27  19  74 NW18      30.06R WCI  13
SHEYENNE NWR     N/A     24  14  66 N14       29.95S WCI  12
ROLLA          FLURRIES  10   9  92 N14       30.05R WCI  -5
 ***** THE ABOVE OBSERVATIONS ARE NON NWS ARE NOT QUALITY
       CONTROLLED AND MAY MIS-REPORT RAIN FOR SNOW...
$$

  *****  WEATHER ACROSS NORTHERN MINNESOTA  *****

CITY           SKY/WX    TMP DP  RH WIND       PRES   REMARKS
FLAG ISLAND    FAIR      16   5  62 CALM      29.98F
WARROAD        FAIR      19  12  73 NW6       30.00S WCI  11
ROSEAU         PTSUNNY   18  12  79 CALM      30.00S
HALLOCK        CLOUDY    18   7  62 N14       30.06R WCI   4
THF RVR FALLS  FAIR      21  14  74 NW12      30.01R WCI   9
6HR MIN TEMP:  10; 6HR MAX TEMP:  21; 6HR PCP: TRACE;

BAUDETTE       LGT SNOW  17  11  77 N13       29.97S WCI   4
6HR MIN TEMP:   6; 6HR MAX TEMP:  17; 6HR PCP: TRACE;

WASKISH        CLOUDY    19  10  68 W5        29.95S WCI  13
CROOKSTON      FAIR      18  14  86 N17       30.06R WCI   2
GREENBUSH NDAW   N/A     18  14  86 N12         N/A  WCI   5
$$
  *****  WEATHER ACROSS CENTRAL AND WEST MINNESOTA  *****

CITY           SKY/WX    TMP DP  RH WIND       PRES   REMARKS
FOSSTON        CLOUDY    25  14  63 N13       29.98R WCI  13
BEMIDJI        PTSUNNY   25  11  56 NW12      29.93S WCI  14
PARK RAPIDS    FAIR      29  12  49 N13       29.91R WCI  19
6HR MIN TEMP:  18; 6HR MAX TEMP:  30;

ELBOW LAKE     FAIR      23  18  80 NW21      30.00R WCI   8
WADENA         FAIR      27  18  69 NW13G20   29.93R WCI  16
DETROIT LAKES  LGT SNOW  23  19  86 NW14      29.99R WCI  11
MOORHEAD       CLOUDY    19  16  86 NW17      30.05R WCI   4
FERGUS FALLS   FAIR      23  18  80 NW20G26   30.05R WCI   8
MORRIS MN      FAIR      28  19  69 NW24      29.99R WCI  14
STAPLES        FAIR      28  18  64 NW10      29.92R WCI  19
$$
  *****  WEATHER ELSEWHERE ACROSS MINNESOTA  *****

CITY           SKY/WX    TMP DP  RH WIND       PRES   REMARKS
DULUTH         FAIR      24  10  55 CALM      29.86R
6HR MIN TEMP:  15; 6HR MAX TEMP:  24;

INTRNTL FALLS  CLOUDY    19   1  45 N7        29.94S WCI  10
6HR MIN TEMP:   7; 6HR MAX TEMP:  19;

ELY            FAIR      19  -2  38 NE5       29.86F WCI  13
CLOQUET        FAIR      25  10  54 NW5       29.87R WCI  19
WHEATON        CLOUDY    25  18  74 NW16G22   30.06R WCI  12
BRAINERD       FAIR      29  14  53 N9        29.91R WCI  20
6HR MIN TEMP:  24; 6HR MAX TEMP:  29;

HIBBING        FAIR      22   4  46 NW6       29.88R WCI  14
6HR MIN TEMP:  13; 6HR MAX TEMP:  23;

ALEXANDRIA     FAIR      30  18  60 NW16      29.94R WCI  19
6HR MIN TEMP:  22; 6HR MAX TEMP:  31;

SAINT CLOUD    PTSUNNY   31  24  75 NW13      29.91R WCI  21
6HR MIN TEMP:  26; 6HR MAX TEMP:  32;

MINNEAPOLIS    PTSUNNY   33  22  63 N15       29.90R WCI  23
6HR MIN TEMP:  26; 6HR MAX TEMP:  33; 6HR PCP: TRACE;

$$

  *****  WEATHER ACROSS SOUTH DAKOTA  *****

CITY           SKY/WX    TMP DP  RH WIND       PRES   REMARKS
SIOUX FALLS    PTSUNNY   30  23  75 NW15G25   30.05R WCI  19
6HR MIN TEMP:  23; 6HR MAX TEMP:  30; 6HR PCP: TRACE;

BROOKINGS      CLOUDY    30  24  78 NW17      30.00R WCI  18
WATERTOWN      PTSUNNY   27  18  69 NW22      30.01R WCI  13
6HR MIN TEMP:  18; 6HR MAX TEMP:  29; 6HR PCP: TRACE;

HURON          CLOUDY    27  22  81 N14       30.09R WCI  16
6HR MIN TEMP:  11; 6HR MAX TEMP:  27; 6HR PCP:  0.01;

SISSETON         N/A     25  19  78 N18       30.03R WCI  11
ABERDEEN       PTSUNNY   27  19  72 NW18      30.08R WCI  14
6HR MIN TEMP:  17; 6HR MAX TEMP:  27; 6HR PCP:  0.01;

MITCHELL       CLOUDY    31  26  82 NW23G29   30.10R WCI  18
PIERRE         CLOUDY    29  20  69 NW17      30.13R WCI  17
6HR MIN TEMP:  15; 6HR MAX TEMP:  30; 6HR PCP:  0.02;

MOBRIDGE       CLOUDY    28  18  66 NW14G24   30.09R WCI  17
RAPID CITY     FAIR      36  10  34 NW13      30.10S
6HR MIN TEMP:  18; 6HR MAX TEMP:  36;

$$

  *****  SOME WEATHER IN NEARBY STATES *****

CITY           SKY/WX    TMP DP  RH WIND       PRES   REMARKS
GLASGOW MT     CLOUDY    26  19  74 SE10      29.98F WCI  16
6HR MIN TEMP:  14; 6HR MAX TEMP:  26; 6HR PCP: TRACE;

GREAT FALLS MT FAIR      35  20  54 SW26G39   29.97R WCI  22
6HR MIN TEMP:  26; 6HR MAX TEMP:  35;

CHEYENNE WY    FAIR      29   8  41 W30G43    30.13R WCI  13
6HR MIN TEMP:  19; 6HR MAX TEMP:  29;

SCOTTSBLUFF NE FAIR      33  16  49 W15G25    30.19S WCI  23
6HR MIN TEMP:  18; 6HR MAX TEMP:  33;

OMAHA NE       FAIR      40  27  59 NW20G29   30.09R
6HR MIN TEMP:  33; 6HR MAX TEMP:  40;

DES MOINES IA  CLOUDY    38  29  70 NW22G28   29.98R
6HR MIN TEMP:  35; 6HR MAX TEMP:  39; 6HR PCP: TRACE;

DAVENPORT IA   CLOUDY    36  31  82 W29G37    29.78R
6HR MIN TEMP:  35; 6HR MAX TEMP:  40; 6HR PCP:  0.03;

CHICAGO IL     CLOUDY    41  35  79 W18G25    29.59R
6HR MIN TEMP:  39; 6HR MAX TEMP:  42; 6HR PCP:  0.06;

EAU CLAIRE WI  CLOUDY    26  20  77 NW17G24   29.82R WCI  13
6HR MIN TEMP:  26; 6HR MAX TEMP:  28; 6HR PCP:  0.06;

LA CROSSE WI   SNOW      30  28  92 NW22      29.78R VSB 1/2 WCI  17
6HR MIN TEMP:  30; 6HR MAX TEMP:  34; 6HR PCP:  0.19;

$$

  *****  SOME NATIONAL WEATHER *****

CITY           SKY/WX    TMP DP  RH WIND       PRES   REMARKS
LA GUARDIA NY  CLOUDY    60  56  86 S6        29.59F
6HR MIN TEMP:  56; 6HR MAX TEMP:  62; 6HR PCP:  0.12;

RALEIGH NC     PTSUNNY   78  57  48 SW35G43   29.90F
6HR MIN TEMP:  65; 6HR MAX TEMP:  78;

ATLANTA GA     PTSUNNY   78  59  51 SW16G33   29.96F
6HR MIN TEMP:  64; 6HR MAX TEMP:  78;

NEW ORLEANS LA PTSUNNY   79  69  71 SW13      30.05F
6HR MIN TEMP:  71; 6HR MAX TEMP:  79;

OKLAHOMA CITY  FAIR      56  11  16 N25       30.26R
6HR MIN TEMP:  36; 6HR MAX TEMP:  57;

ALBUQUERQUE NM FAIR      41   1  18 N14       30.34S
6HR MIN TEMP:  31; 6HR MAX TEMP:  42;

SALT LAKE CITY PTSUNNY   37  21  52 SE8       30.46R
6HR MIN TEMP:  28; 6HR MAX TEMP:  37;

LOS ANGELES CA FAIR      64  38  38 VRB6      30.28S
6HR MIN TEMP:  46; 6HR MAX TEMP:  64;

BOISE ID       PTSUNNY   42  23  46 NW10      30.43R
6HR MIN TEMP:  30; 6HR



USA.gov is the U.S. government's official web portal to all federal, state and local government web resources and services.